[[{"header":{"parameterUnit":"m.s-1","parameterCategory":1,"la1":30.2991,"la2":30.254,"lo1":-89.0895,"lo2":-89.0444,"dy":0.0017,"dx":0.0017,"nx":28,"ny":28,"refTime":"2025-07-04T03:00:00:Z","depth":0,"parameterNumber":2,"parameterNumberName":"U-component_of_WINDS"},"data":[0,0,0,0,0,0,0,0,0,0,0,0,0,0,0,0,0,0,0,0,0,0,0,0,0,0,0,0,0,0,0,0,0,0,0,0,0,0,0,0,0,0,0,0,0,0,0,0,0,0,0,0,0,0,0,0,0,0,1.3665,1.3666,0,1.3784,1.3785,1.3787,1.3762,1.376,1.3758,1.3756,1.3885,1.389,1.3895,0,0,0,0,0,0,0,0,0,0,0,0,0,1.3423,1.3428,1.3665,1.3666,1.3668,1.3784,1.3786,1.3787,1.3763,1.376,1.3757,1.3755,1.3883,1.3889,1.3896,0,0,0,0,0,0,0,0,0,0,0,0,0,1.3534,1.3429,1.3664,1.3669,1.3671,1.3784,1.3786,1.3788,1.3763,1.376,1.3757,1.3754,1.3881,1.3889,1.3897,1.4014,0,0,1.3922,1.3925,0,0,0,0,0,0,0,0,1.3528,1.3543,1.3667,1.3669,1.3671,1.3755,1.3747,1.3864,1.3764,1.3729,1.3756,1.3752,1.3844,1.3855,1.3885,1.402,1.4025,1.3922,1.3927,1.3931,1.3933,0,0,0,0,0,0,0,1.352,1.3538,1.3712,1.3669,1.3672,1.3668,1.368,1.3769,1.3804,1.3731,1.373,1.3744,1.3845,1.3877,1.3888,1.4027,1.3922,1.393,1.3935,1.3938,1.4267,1.4271,0,0,0,0,0,0,1.351,1.3532,1.3708,1.3716,1.359,1.3675,1.3689,1.3732,1.3803,1.381,1.3747,1.3742,1.3865,1.3879,1.3893,1.4036,1.3931,1.3939,1.3943,1.4263,1.4268,1.4272,0,0,0,0,0,0,1.3505,1.3526,1.3704,1.3623,1.3646,1.3683,1.3731,1.3736,1.3768,1.3814,1.3821,1.3773,1.3863,1.3881,1.3984,1.404,1.3942,1.395,1.4259,1.4265,1.427,1.4323,0,0,0,0,0,0,1.3498,1.3524,1.3567,1.3624,1.365,1.3791,1.3735,1.374,1.3781,1.3777,1.3841,1.3848,1.3862,1.3972,1.3992,1.405,1.3956,1.4254,1.4261,1.4268,1.4317,1.433,1.4342,0,0,0,0,0,1.3489,1.3578,1.3569,1.3591,1.3704,1.3794,1.3809,1.3821,1.3786,1.3831,1.3861,1.3846,1.4031,1.3983,1.4005,1.4066,1.425,1.4259,1.4267,1.4311,1.4328,1.4342,0,0,0,0,0,0,1.3528,1.3585,1.3576,1.3686,1.3735,1.379,1.3846,1.3837,1.3899,1.3893,1.3907,1.3922,1.4027,1.4057,1.4002,1.4185,1.4136,1.4149,1.4162,1.4177,1.419,1.4181,1.3963,0,0,0,0,0,1.3549,1.3615,1.3662,1.3755,1.378,1.3809,1.3849,1.3854,1.3906,1.3927,1.3965,1.4018,1.4088,1.4134,1.4201,1.4321,1.4336,1.4374,1.4387,1.4397,1.4409,1.4477,1.4495,1.43,1.43,1.43,0,0,1.3593,1.3633,1.3674,1.3763,1.3802,1.3873,1.3827,1.3903,1.3956,1.3939,1.4039,1.4069,1.4129,1.4242,1.4293,1.427,1.4466,1.4408,1.4415,1.4422,1.4488,1.4506,1.4523,1.4306,1.4305,1.4304,0,0,1.3711,1.3746,1.3828,1.3868,1.3927,1.3946,1.3966,1.4022,1.4041,1.414,1.413,1.4195,1.4315,1.4359,1.4398,1.4534,1.4524,1.4556,1.4622,1.4688,1.4703,1.4717,1.4768,1.4786,1.4567,1.4568,1.4568,0,1.3759,1.3863,1.3872,1.395,1.3991,1.3977,1.4062,1.4101,1.4179,1.4209,1.4181,1.4333,1.4373,1.4497,1.453,1.4561,1.4586,1.4549,1.47,1.4714,1.4727,1.4776,1.4795,1.4571,1.4571,1.457,1.457,0,1.3921,1.3994,1.4053,1.4128,1.4176,1.4257,1.428,1.4328,1.4329,1.4352,1.4456,1.4503,1.4581,1.461,1.4613,1.4736,1.472,1.4696,1.4647,1.4749,1.4796,1.4814,1.4576,1.4575,1.4574,1.4573,0,0,1.4066,1.4145,1.4167,1.4202,1.4267,1.4324,1.4406,1.448,1.4522,1.4577,1.4648,1.4751,1.473,1.4773,1.4781,1.4839,1.4947,1.4809,1.481,1.4835,1.5089,1.5107,1.5129,1.494,1.4944,1.4947,1.5084,0,1.4191,1.4332,1.4344,1.4473,1.4542,1.4531,1.4603,1.4652,1.4676,1.474,1.4768,1.4841,1.4806,1.4833,1.489,1.4922,1.4999,1.4912,1.5009,1.5013,1.4996,1.5152,1.5172,1.5299,1.5102,1.5105,1.5108,0,1.4355,1.4414,1.455,1.4607,1.4636,1.47,1.477,1.4831,1.4887,1.4901,1.4951,1.4951,1.5038,1.4985,1.5107,1.5048,1.5089,1.5111,1.5116,1.5127,1.5067,1.5169,1.534,1.536,1.5136,1.5134,1.5132,0,1.445,1.4563,1.466,1.469,1.4758,1.4804,1.4835,1.4888,1.4933,1.4995,1.5025,1.5097,1.5137,1.5194,1.5215,1.5174,1.5337,1.5285,1.5353,1.5353,1.5389,1.5387,1.557,1.5413,1.5412,1.5412,1.5412,0,1.4589,1.4673,1.4703,1.4763,1.4857,1.4871,1.4965,1.4994,1.5042,1.5109,1.5105,1.5168,1.5191,1.5259,1.5276,1.5376,1.5394,1.541,1.5414,1.5411,1.5409,1.5439,1.5431,1.5417,1.5416,1.5415,1.5414,0,1.4711,1.4734,1.4839,1.4895,1.4912,1.4979,1.5029,1.5088,1.5111,1.5196,1.5217,1.5255,1.5335,1.5361,1.5458,1.547,1.5587,1.5583,1.5568,1.5569,1.5636,1.563,1.5846,1.5876,1.5697,1.5699,1.57,0,1.4799,1.4863,1.4926,1.497,1.5003,1.5073,1.5119,1.5135,1.5183,1.5254,1.5305,1.5384,1.5448,1.5578,1.5615,1.5691,1.5689,1.5759,1.57,1.5696,1.5692,1.5689,1.5696,1.5771,1.5773,1.5774,1.5776,0,1.4953,1.4962,1.5026,1.5096,1.515,1.5206,1.526,1.5297,1.5322,1.5377,1.5458,1.5508,1.5607,1.5687,1.5764,1.5799,1.5793,1.5794,1.5814,1.5813,1.5802,1.5811,1.56,1.5789,1.5788,1.5787,1.5786,1.5785,1.5062,1.5119,1.5173,1.5246,1.5289,1.534,1.5399,1.5429,1.5497,1.5578,1.5584,1.5673,1.5731,1.5833,1.5872,1.5943,1.5923,1.5952,1.5959,1.5966,1.5973,1.5789,1.5957,1.5956,1.5956,1.5956,1.5956,0,1.5217,1.5252,1.5319,1.5394,1.5453,1.544,1.55,1.555,1.5628,1.5681,1.5744,1.5839,1.5917,1.5961,1.6039,1.6088,1.6088,1.6108,1.6106,1.6114,1.5985,1.596,1.6108,1.6108,1.6108,1.6107,1.6107,1.6107,1.5305,1.5402,1.5418,1.5538,1.5572,1.5657,1.5693,1.5741,1.5784,1.589,1.5954,1.5981,1.6032,1.6115,1.6186,1.6198,1.6228,1.6251,1.626,1.6139,1.6123,1.6108,1.6085,1.6257,1.6257,1.6384,1.6385,1.6386]},{"header":{"parameterUnit":"m.s-1","parameterCategory":1,"la1":30.2991,"la2":30.254,"lo1":-89.0895,"lo2":-89.0444,"dy":0.0017,"dx":0.0017,"nx":28,"ny":28,"refTime":"2025-07-04T03:00:00:Z","depth":0,"parameterNumber":3,"parameterNumberName":"V-component_of_WINDS"},"data":[0,0,0,0,0,0,0,0,0,0,0,0,0,0,0,0,0,0,0,0,0,0,0,0,0,0,0,0,0,0,0,0,0,0,0,0,0,0,0,0,0,0,0,0,0,0,0,0,0,0,0,0,0,0,0,0,0,0,0.2378,0.238,0,0.2516,0.2517,0.2519,0.2438,0.2435,0.2431,0.2427,0.2569,0.2576,0.2584,0,0,0,0,0,0,0,0,0,0,0,0,0,0.2044,0.2051,0.2378,0.238,0.2381,0.2515,0.2517,0.2519,0.2439,0.2434,0.243,0.2425,0.2567,0.2575,0.2584,0,0,0,0,0,0,0,0,0,0,0,0,0,0.2186,0.2053,0.2378,0.2358,0.2357,0.2515,0.2517,0.252,0.244,0.2434,0.2428,0.2423,0.2564,0.2575,0.2586,0.2771,0,0,0.262,0.2624,0,0,0,0,0,0,0,0,0.2178,0.2199,0.2359,0.2359,0.2359,0.2454,0.2451,0.2604,0.2442,0.2409,0.2427,0.242,0.2536,0.2549,0.2587,0.2778,0.2784,0.2621,0.2627,0.2632,0.2635,0,0,0,0,0,0,0,0.2168,0.2192,0.2432,0.2361,0.2361,0.2341,0.2355,0.248,0.2503,0.2411,0.2406,0.2423,0.2535,0.2577,0.259,0.2786,0.262,0.263,0.2637,0.2641,0.313,0.3136,0,0,0,0,0,0,0.216,0.2184,0.2428,0.2437,0.2252,0.2352,0.2367,0.2429,0.2502,0.2507,0.2428,0.2419,0.2561,0.2577,0.2595,0.2814,0.2632,0.2642,0.2649,0.3124,0.3131,0.3138,0,0,0,0,0,0,0.2153,0.2183,0.2422,0.2309,0.2338,0.2364,0.2434,0.2435,0.2477,0.2514,0.2518,0.2467,0.2557,0.2579,0.2727,0.2817,0.2648,0.2658,0.3116,0.3126,0.3135,0.3255,0,0,0,0,0,0,0.2144,0.2181,0.2253,0.2311,0.2344,0.2554,0.244,0.2442,0.2497,0.2486,0.2552,0.2557,0.2554,0.271,0.2738,0.283,0.2666,0.3108,0.3121,0.3132,0.3243,0.3267,0.3288,0,0,0,0,0,0.2132,0.2282,0.2257,0.2286,0.2435,0.2559,0.2578,0.2571,0.2504,0.2576,0.2598,0.2555,0.2803,0.2726,0.2756,0.2853,0.3103,0.3117,0.3131,0.3233,0.3262,0.3287,0,0,0,0,0,0,0.2236,0.229,0.2262,0.2436,0.2493,0.2545,0.2636,0.2603,0.2681,0.2668,0.2656,0.2671,0.2824,0.2853,0.2767,0.3034,0.2942,0.2963,0.3009,0.3038,0.306,0.305,0.2676,0,0,0,0,0,0.2278,0.2375,0.2417,0.2566,0.2596,0.2611,0.2665,0.2653,0.2713,0.2737,0.2771,0.283,0.292,0.2981,0.3067,0.3246,0.3257,0.3327,0.3349,0.3368,0.3386,0.3478,0.3509,0.3185,0.3185,0.3185,0,0,0.2368,0.241,0.2472,0.2587,0.2631,0.2729,0.2632,0.2742,0.2815,0.2754,0.2894,0.2921,0.2985,0.3149,0.3222,0.3178,0.3477,0.3386,0.34,0.3409,0.3496,0.3527,0.3554,0.3195,0.3193,0.3191,0,0,0.2582,0.2624,0.2751,0.2795,0.286,0.2868,0.2899,0.2955,0.297,0.311,0.3065,0.315,0.3308,0.3355,0.3399,0.3624,0.3586,0.3652,0.3771,0.3861,0.3886,0.3909,0.3986,0.4015,0.367,0.3671,0.3671,0,0.2686,0.2833,0.282,0.2932,0.2983,0.293,0.3056,0.31,0.3191,0.3227,0.3175,0.3368,0.3408,0.3579,0.3633,0.3672,0.3704,0.3645,0.3884,0.3906,0.3927,0.4001,0.403,0.3678,0.3677,0.3677,0.3676,0,0.2956,0.3058,0.3153,0.3239,0.33,0.3419,0.3423,0.3486,0.3468,0.3481,0.3622,0.3667,0.3759,0.3799,0.3784,0.3967,0.3936,0.3885,0.3793,0.3966,0.4034,0.4063,0.3689,0.3686,0.3684,0.3682,0,0,0.3243,0.3316,0.3351,0.3387,0.3453,0.3531,0.3646,0.3734,0.3787,0.3851,0.3945,0.4076,0.4027,0.4077,0.4066,0.4146,0.4317,0.4084,0.4085,0.4124,0.4517,0.4555,0.4588,0.4291,0.4297,0.4301,0.4511,0,0.3459,0.3659,0.3648,0.3835,0.3927,0.3875,0.3974,0.4025,0.4039,0.4118,0.4133,0.4225,0.4155,0.4184,0.4261,0.428,0.4396,0.4265,0.4377,0.4382,0.4362,0.4624,0.4666,0.4862,0.4538,0.4542,0.4546,0,0.3739,0.3808,0.4004,0.4051,0.4089,0.4179,0.4256,0.4334,0.4388,0.4392,0.4445,0.442,0.4533,0.4437,0.4592,0.4503,0.4548,0.4564,0.4571,0.4581,0.4474,0.464,0.4924,0.4953,0.4589,0.4585,0.4582,0,0.3925,0.4068,0.4202,0.4235,0.4294,0.4357,0.4385,0.4433,0.4485,0.4553,0.4585,0.4666,0.471,0.4771,0.4767,0.4698,0.4922,0.4827,0.4927,0.4927,0.4977,0.4974,0.5272,0.5008,0.5008,0.5007,0.5007,0,0.4167,0.4289,0.4285,0.4368,0.4501,0.4486,0.4618,0.4638,0.4681,0.4765,0.4725,0.4805,0.4795,0.4874,0.4871,0.4997,0.5018,0.5023,0.5021,0.5026,0.5025,0.5055,0.5041,0.5015,0.5013,0.5012,0.5011,0,0.4399,0.4402,0.4544,0.4586,0.46,0.4696,0.4731,0.4808,0.4816,0.4923,0.4947,0.4961,0.5052,0.5053,0.5158,0.5155,0.5309,0.5292,0.5291,0.5287,0.5386,0.5375,0.5712,0.5754,0.5465,0.5468,0.547,0,0.4553,0.4644,0.4695,0.4747,0.4778,0.4865,0.4916,0.4903,0.4958,0.5024,0.5092,0.5179,0.5248,0.5395,0.5413,0.5492,0.5475,0.5588,0.5487,0.5488,0.5474,0.5468,0.5476,0.5607,0.5611,0.5613,0.5615,0,0.4825,0.482,0.4896,0.4972,0.5033,0.5093,0.5147,0.5192,0.5185,0.5248,0.534,0.5393,0.5497,0.5583,0.5658,0.5684,0.5648,0.5646,0.5673,0.568,0.5674,0.5675,0.5342,0.5639,0.5637,0.5635,0.5634,0.5633,0.5021,0.5098,0.5144,0.5229,0.5267,0.5317,0.539,0.5406,0.5482,0.5565,0.5552,0.5653,0.57,0.5797,0.5829,0.5907,0.5868,0.5908,0.5917,0.5927,0.5936,0.5662,0.5921,0.592,0.592,0.5919,0.5918,0,0.5289,0.5315,0.5393,0.5468,0.5533,0.5491,0.5548,0.5605,0.5694,0.5741,0.5808,0.591,0.5991,0.6014,0.6092,0.6149,0.6134,0.617,0.6165,0.6171,0.5969,0.5936,0.618,0.618,0.618,0.618,0.618,0.618,0.5437,0.5563,0.5563,0.5707,0.5732,0.583,0.5865,0.591,0.5946,0.6062,0.6128,0.6142,0.6178,0.6257,0.6328,0.6333,0.6362,0.6404,0.6402,0.6212,0.6186,0.6161,0.6131,0.6411,0.6412,0.6598,0.6599,0.6601]}]]